VLO6027 SBFZ-SBBE

Flight info

Callsign VLO6027
Flight time 1h 29m
Altitude FL340
Route SLI
Aircraft B703/H-VRDW/C

Departure

Time 2026-05-09 05:33
Airport Pinto Martins International Airport (SBFZ)

Arrival

Time 2026-05-09 07:03
Airport Val de Cans/Júlio Cezar Ribeiro International Airport (SBBE)
Time Latitude Longitude Altitude Speed Heading
2026-05-09 05:23 -3.77375 -38.53330 91 ft 0 kts 20°
2026-05-09 05:27 -3.77391 -38.53336 91 ft 6 kts 20°
2026-05-09 05:27 -3.77443 -38.53336 92 ft 8 kts 324°
2026-05-09 05:27 -3.77468 -38.53299 92 ft 3 kts 288°
2026-05-09 05:28 -3.77469 -38.53297 92 ft 0 kts 288°
2026-05-09 05:29 -3.77468 -38.53300 92 ft 2 kts 288°
2026-05-09 05:30 -3.77451 -38.53343 92 ft 11 kts 291°
2026-05-09 05:30 -3.77421 -38.53444 92 ft 19 kts 284°
2026-05-09 05:30 -3.77385 -38.53581 92 ft 20 kts 285°
2026-05-09 05:30 -3.77348 -38.53717 91 ft 20 kts 285°
2026-05-09 05:31 -3.77312 -38.53852 91 ft 20 kts 285°
2026-05-09 05:31 -3.77275 -38.53986 91 ft 20 kts 285°
2026-05-09 05:31 -3.77241 -38.54118 91 ft 20 kts 281°
2026-05-09 05:31 -3.77242 -38.54248 91 ft 16 kts 267°
2026-05-09 05:32 -3.77257 -38.54331 92 ft 10 kts 227°
2026-05-09 05:32 -3.77322 -38.54349 92 ft 10 kts 166°
2026-05-09 05:32 -3.77348 -38.54316 92 ft 3 kts 104°
2026-05-09 05:32 -3.77349 -38.54310 92 ft 0 kts 104°
2026-05-09 05:33 -3.77394 -38.54143 92 ft 59 kts 105°
2026-05-09 05:33 -3.77558 -38.53530 94 ft 121 kts 106°
2026-05-09 05:33 -3.77825 -38.52576 308 ft 153 kts 107°
2026-05-09 05:33 -3.78133 -38.51578 1073 ft 149 kts 110°
2026-05-09 05:34 -3.78464 -38.50552 1670 ft 164 kts 105°
2026-05-09 05:34 -3.78553 -38.49329 1946 ft 187 kts 84°
2026-05-09 05:34 -3.77821 -38.47805 1914 ft 187 kts 41°
2026-05-09 05:34 -3.77070 -38.47350 2332 ft 191 kts 21°
2026-05-09 05:35 -3.75741 -38.47194 2779 ft 196 kts 351°
2026-05-09 05:35 -3.74155 -38.48025 3250 ft 197 kts 310°
2026-05-09 05:35 -3.73671 -38.48787 3502 ft 197 kts 290°
2026-05-09 05:35 -3.73559 -38.50575 4034 ft 196 kts 257°
2026-05-09 05:36 -3.73785 -38.51461 4336 ft 197 kts 252°
2026-05-09 05:36 -3.74210 -38.52763 4716 ft 198 kts 250°
2026-05-09 05:36 -3.74661 -38.54062 5088 ft 199 kts 250°
2026-05-09 05:36 -3.75116 -38.55367 5465 ft 200 kts 250°
2026-05-09 05:37 -3.75573 -38.56685 5876 ft 206 kts 250°
2026-05-09 05:37 -3.76065 -38.58104 6392 ft 228 kts 250°
2026-05-09 05:37 -3.76292 -38.59751 6808 ft 255 kts 274°
2026-05-09 05:37 -3.75947 -38.61579 7264 ft 276 kts 282°
2026-05-09 05:38 -3.75531 -38.63467 7624 ft 281 kts 281°
2026-05-09 05:38 -3.75150 -38.65385 7992 ft 283 kts 280°
2026-05-09 05:38 -3.74776 -38.67314 8365 ft 284 kts 280°
2026-05-09 05:38 -3.74398 -38.69256 8740 ft 286 kts 280°
2026-05-09 05:39 -3.74017 -38.71205 9114 ft 287 kts 280°
2026-05-09 05:39 -3.73633 -38.73166 9488 ft 289 kts 280°
2026-05-09 05:39 -3.73246 -38.75149 9865 ft 290 kts 280°
2026-05-09 05:39 -3.72859 -38.77130 10240 ft 292 kts 280°
2026-05-09 05:40 -3.72465 -38.79143 10682 ft 305 kts 280°
2026-05-09 05:40 -3.72043 -38.81304 11132 ft 329 kts 280°
2026-05-09 05:40 -3.71434 -38.84420 11691 ft 356 kts 280°
2026-05-09 05:40 -3.71114 -38.86057 11980 ft 368 kts 280°
2026-05-09 05:41 -3.70616 -38.88601 12558 ft 378 kts 281°
2026-05-09 05:41 -3.70104 -38.91222 13185 ft 386 kts 281°
2026-05-09 05:41 -3.69585 -38.93872 13813 ft 392 kts 281°
2026-05-09 05:41 -3.69059 -38.96561 14440 ft 398 kts 281°
2026-05-09 05:42 -3.68527 -38.99283 15065 ft 402 kts 281°
2026-05-09 05:42 -3.67988 -39.02038 15690 ft 406 kts 281°
2026-05-09 05:42 -3.67446 -39.04811 16313 ft 410 kts 281°
2026-05-09 05:42 -3.66899 -39.07607 16935 ft 412 kts 281°
2026-05-09 05:43 -3.66344 -39.10442 17562 ft 415 kts 281°
2026-05-09 05:43 -3.65790 -39.13273 18183 ft 417 kts 281°
2026-05-09 05:43 -3.65234 -39.16115 18803 ft 418 kts 281°
2026-05-09 05:43 -3.64675 -39.18969 19423 ft 420 kts 281°
2026-05-09 05:44 -3.64115 -39.21832 20043 ft 421 kts 281°
2026-05-09 05:44 -3.63553 -39.24699 20662 ft 422 kts 281°
2026-05-09 05:44 -3.62989 -39.27579 21281 ft 424 kts 281°
2026-05-09 05:44 -3.62420 -39.30487 21905 ft 425 kts 281°
2026-05-09 05:45 -3.61853 -39.33382 22524 ft 426 kts 281°
2026-05-09 05:45 -3.61284 -39.36288 23127 ft 428 kts 281°
2026-05-09 05:45 -3.60712 -39.39209 23652 ft 431 kts 281°
2026-05-09 05:45 -3.60134 -39.42159 24156 ft 435 kts 281°
2026-05-09 05:46 -3.59552 -39.45130 24655 ft 439 kts 281°
2026-05-09 05:46 -3.58965 -39.48124 25153 ft 442 kts 281°
2026-05-09 05:46 -3.58369 -39.51166 25655 ft 445 kts 281°
2026-05-09 05:46 -3.57773 -39.54206 26089 ft 449 kts 281°
2026-05-09 05:47 -3.57171 -39.57277 26475 ft 454 kts 281°
2026-05-09 05:47 -3.56562 -39.60386 26790 ft 461 kts 281°
2026-05-09 05:47 -3.55943 -39.63544 27056 ft 467 kts 281°
2026-05-09 05:47 -3.55316 -39.66741 27314 ft 473 kts 281°
2026-05-09 05:48 -3.54681 -39.69980 27569 ft 479 kts 281°
2026-05-09 05:48 -3.54034 -39.73275 27825 ft 483 kts 281°
2026-05-09 05:48 -3.53387 -39.76575 28078 ft 488 kts 281°
2026-05-09 05:48 -3.52735 -39.79899 28329 ft 491 kts 281°
2026-05-09 05:49 -3.52078 -39.83247 28580 ft 493 kts 281°
2026-05-09 05:49 -3.51421 -39.86597 28896 ft 493 kts 281°
2026-05-09 05:49 -3.50762 -39.89953 29256 ft 493 kts 281°
2026-05-09 05:49 -3.50104 -39.93304 29623 ft 492 kts 281°
2026-05-09 05:50 -3.49443 -39.96670 29994 ft 492 kts 281°
2026-05-09 05:50 -3.48785 -40.00023 30364 ft 492 kts 281°
2026-05-09 05:50 -3.48129 -40.03363 30732 ft 492 kts 281°
2026-05-09 05:50 -3.47473 -40.06706 31101 ft 492 kts 281°
2026-05-09 05:51 -3.46595 -40.11176 31594 ft 492 kts 281°
2026-05-09 05:51 -3.46158 -40.13401 31840 ft 493 kts 281°
2026-05-09 05:51 -3.45500 -40.16750 32209 ft 493 kts 281°
2026-05-09 05:51 -3.44837 -40.20125 32581 ft 493 kts 281°
2026-05-09 05:52 -3.44178 -40.23480 32950 ft 493 kts 281°
2026-05-09 05:52 -3.43519 -40.26834 33319 ft 494 kts 281°
2026-05-09 05:52 -3.42637 -40.31322 33812 ft 494 kts 281°
2026-05-09 05:52 -3.42198 -40.33554 34057 ft 495 kts 281°
2026-05-09 05:53 -3.41537 -40.36915 34426 ft 495 kts 281°
2026-05-09 05:53 -3.40875 -40.40284 34753 ft 496 kts 281°
2026-05-09 05:53 -3.40205 -40.43693 34959 ft 500 kts 281°
2026-05-09 05:53 -3.39535 -40.47099 35089 ft 504 kts 281°
2026-05-09 05:54 -3.38178 -40.53996 35228 ft 511 kts 281°
2026-05-09 05:54 -3.36804 -40.60979 35284 ft 516 kts 281°
2026-05-09 05:55 -3.35413 -40.68051 35304 ft 520 kts 281°
2026-05-09 05:55 -3.34020 -40.75127 35311 ft 522 kts 281°
2026-05-09 05:56 -3.32622 -40.82226 35313 ft 523 kts 281°
2026-05-09 05:56 -3.31222 -40.89335 35313 ft 523 kts 281°
2026-05-09 05:57 -3.29816 -40.96476 35312 ft 524 kts 281°
2026-05-09 05:57 -3.28182 -41.04788 35312 ft 524 kts 281°
2026-05-09 05:58 -3.27041 -41.10715 35300 ft 524 kts 280°
2026-05-09 05:58 -3.25663 -41.17860 35310 ft 523 kts 281°
2026-05-09 05:59 -3.24277 -41.24970 35312 ft 523 kts 281°
2026-05-09 05:59 -3.22882 -41.32076 35262 ft 520 kts 281°
2026-05-09 06:00 -3.21500 -41.39054 35333 ft 514 kts 281°
2026-05-09 06:00 -3.20099 -41.46088 35271 ft 515 kts 281°
2026-05-09 06:01 -3.18694 -41.53086 35315 ft 516 kts 281°
2026-05-09 06:01 -3.17279 -41.60085 35297 ft 515 kts 281°
2026-05-09 06:02 -3.15850 -41.67111 35312 ft 516 kts 281°
2026-05-09 06:02 -3.14418 -41.74106 35309 ft 515 kts 281°
2026-05-09 06:03 -3.12976 -41.81103 35308 ft 516 kts 281°
2026-05-09 06:03 -3.11526 -41.88096 35315 ft 515 kts 281°
2026-05-09 06:04 -3.10063 -41.95112 35304 ft 516 kts 281°
2026-05-09 06:04 -3.08597 -42.02100 35319 ft 516 kts 281°
2026-05-09 06:05 -3.07122 -42.09091 35302 ft 516 kts 281°
2026-05-09 06:05 -3.05636 -42.16100 35321 ft 516 kts 282°
2026-05-09 06:06 -3.04147 -42.23085 35302 ft 516 kts 282°
2026-05-09 06:06 -3.02651 -42.30066 35320 ft 516 kts 282°
2026-05-09 06:07 -3.01146 -42.37054 35304 ft 516 kts 282°
2026-05-09 06:07 -2.99631 -42.44056 35318 ft 516 kts 282°
2026-05-09 06:08 -2.98113 -42.51039 35307 ft 515 kts 282°
2026-05-09 06:08 -2.96591 -42.58012 35313 ft 516 kts 282°
2026-05-09 06:09 -2.95056 -42.65014 35312 ft 515 kts 282°
2026-05-09 06:09 -2.93520 -42.71991 35309 ft 516 kts 282°
2026-05-09 06:10 -2.91979 -42.78961 35316 ft 516 kts 282°
2026-05-09 06:10 -2.90432 -42.85937 35304 ft 516 kts 282°
2026-05-09 06:11 -2.89000 -42.92369 35318 ft 516 kts 282°
2026-05-09 06:11 -2.87441 -42.99344 35303 ft 516 kts 282°
2026-05-09 06:12 -2.85755 -43.06866 35322 ft 516 kts 282°
2026-05-09 06:12 -2.84182 -43.13862 35301 ft 516 kts 282°
2026-05-09 06:13 -2.82874 -43.19658 35322 ft 516 kts 282°
2026-05-09 06:14 -2.79358 -43.35180 35317 ft 516 kts 282°
2026-05-09 06:14 -2.77773 -43.42145 35309 ft 515 kts 282°
2026-05-09 06:15 -2.76180 -43.49132 35312 ft 516 kts 282°
2026-05-09 06:15 -2.74588 -43.56093 35314 ft 515 kts 282°
2026-05-09 06:16 -2.72993 -43.63056 35307 ft 516 kts 282°
2026-05-09 06:16 -2.71390 -43.70039 35318 ft 516 kts 282°
2026-05-09 06:17 -2.69789 -43.77001 35303 ft 516 kts 282°
2026-05-09 06:17 -2.68186 -43.83957 35321 ft 516 kts 282°
2026-05-09 06:18 -2.66581 -43.90912 35301 ft 516 kts 282°
2026-05-09 06:18 -2.64966 -43.97898 35322 ft 516 kts 282°
2026-05-09 06:19 -2.63356 -44.04856 35301 ft 516 kts 282°
2026-05-09 06:19 -2.61745 -44.11808 35321 ft 516 kts 282°
2026-05-09 06:20 -2.60126 -44.18790 35304 ft 516 kts 283°
2026-05-09 06:20 -2.58511 -44.25747 35139 ft 517 kts 283°
2026-05-09 06:21 -2.57707 -44.29210 35029 ft 512 kts 283°
2026-05-09 06:21 -2.56906 -44.32660 35168 ft 512 kts 283°
2026-05-09 06:21 -2.56119 -44.36048 35066 ft 491 kts 283°
2026-05-09 06:21 -2.55353 -44.39346 35238 ft 491 kts 282°
2026-05-09 06:22 -2.53786 -44.46092 35332 ft 505 kts 283°
2026-05-09 06:22 -2.52196 -44.52936 35273 ft 508 kts 283°
2026-05-09 06:23 -2.50603 -44.59790 35295 ft 508 kts 283°
2026-05-09 06:23 -2.49006 -44.66662 35304 ft 508 kts 283°
2026-05-09 06:24 -2.47413 -44.73516 35308 ft 508 kts 283°
2026-05-09 06:24 -2.45820 -44.80368 35310 ft 508 kts 283°
2026-05-09 06:25 -2.44227 -44.87221 35311 ft 508 kts 283°
2026-05-09 06:25 -2.42628 -44.94099 35311 ft 508 kts 283°
2026-05-09 06:26 -2.41034 -45.00953 35312 ft 508 kts 283°
2026-05-09 06:26 -2.39440 -45.07805 35312 ft 508 kts 283°
2026-05-09 06:27 -2.37840 -45.14684 35312 ft 508 kts 283°
2026-05-09 06:27 -2.36245 -45.21535 35312 ft 508 kts 283°
2026-05-09 06:28 -2.34651 -45.28387 35312 ft 508 kts 283°
2026-05-09 06:28 -2.33057 -45.35234 35312 ft 508 kts 283°
2026-05-09 06:29 -2.31456 -45.42114 35312 ft 508 kts 283°
2026-05-09 06:29 -2.29860 -45.48967 35312 ft 508 kts 283°
2026-05-09 06:30 -2.28265 -45.55816 35312 ft 508 kts 283°
2026-05-09 06:30 -2.26663 -45.62696 35312 ft 508 kts 283°
2026-05-09 06:31 -2.25068 -45.69545 35312 ft 508 kts 283°
2026-05-09 06:31 -2.23472 -45.76397 35312 ft 508 kts 283°
2026-05-09 06:32 -2.21876 -45.83246 35312 ft 508 kts 283°
2026-05-09 06:33 -2.19476 -45.93548 35312 ft 508 kts 283°
2026-05-09 06:33 -2.17879 -46.00398 35312 ft 508 kts 283°
2026-05-09 06:34 -2.15478 -46.10700 35312 ft 508 kts 283°
2026-05-09 06:34 -2.13881 -46.17550 35312 ft 508 kts 283°
2026-05-09 06:35 -2.12283 -46.24400 35312 ft 508 kts 283°
2026-05-09 06:35 -2.10686 -46.31250 35312 ft 508 kts 283°
2026-05-09 06:36 -2.09082 -46.38126 35312 ft 508 kts 283°
2026-05-09 06:36 -2.07484 -46.44976 35312 ft 508 kts 283°
2026-05-09 06:37 -2.05886 -46.51827 35312 ft 508 kts 283°
2026-05-09 06:37 -2.04282 -46.58701 35312 ft 508 kts 283°
2026-05-09 06:38 -2.02683 -46.65552 35312 ft 508 kts 283°
2026-05-09 06:38 -2.01085 -46.72401 35312 ft 508 kts 283°
2026-05-09 06:39 -1.99486 -46.79248 35312 ft 508 kts 283°
2026-05-09 06:39 -1.97881 -46.86126 35312 ft 508 kts 283°
2026-05-09 06:40 -1.97089 -46.89519 35224 ft 494 kts 283°
2026-05-09 06:40 -1.96317 -46.92821 35311 ft 491 kts 283°
2026-05-09 06:40 -1.94767 -46.99460 35307 ft 493 kts 283°
2026-05-09 06:41 -1.93209 -47.06132 35310 ft 493 kts 283°
2026-05-09 06:41 -1.91658 -47.12773 35311 ft 493 kts 283°
2026-05-09 06:42 -1.90880 -47.16102 35077 ft 493 kts 283°
2026-05-09 06:42 -1.90108 -47.19409 34478 ft 488 kts 283°
2026-05-09 06:42 -1.89344 -47.22678 33851 ft 482 kts 283°
2026-05-09 06:42 -1.88590 -47.25907 33227 ft 478 kts 283°
2026-05-09 06:43 -1.87836 -47.29134 32597 ft 473 kts 283°
2026-05-09 06:43 -1.87095 -47.32305 31973 ft 469 kts 283°
2026-05-09 06:43 -1.86360 -47.35449 31350 ft 464 kts 283°
2026-05-09 06:43 -1.85633 -47.38562 30728 ft 460 kts 283°
2026-05-09 06:44 -1.84912 -47.41648 30105 ft 456 kts 283°
2026-05-09 06:44 -1.84197 -47.44706 29482 ft 452 kts 283°
2026-05-09 06:44 -1.83489 -47.47734 28859 ft 447 kts 283°
2026-05-09 06:44 -1.82783 -47.50758 28231 ft 443 kts 283°
2026-05-09 06:45 -1.82087 -47.53732 27608 ft 439 kts 283°
2026-05-09 06:45 -1.81399 -47.56677 26985 ft 435 kts 283°
2026-05-09 06:45 -1.80716 -47.59599 26362 ft 431 kts 283°
2026-05-09 06:45 -1.80040 -47.62491 25739 ft 427 kts 283°
2026-05-09 06:46 -1.79369 -47.65362 25114 ft 424 kts 283°
2026-05-09 06:46 -1.78705 -47.68203 24491 ft 420 kts 283°
2026-05-09 06:46 -1.78041 -47.71039 23863 ft 416 kts 283°
2026-05-09 06:46 -1.77388 -47.73832 23239 ft 412 kts 283°
2026-05-09 06:47 -1.76741 -47.76599 22615 ft 409 kts 283°
2026-05-09 06:47 -1.76100 -47.79342 21991 ft 405 kts 283°
2026-05-09 06:47 -1.75465 -47.82056 21368 ft 401 kts 283°
2026-05-09 06:47 -1.74835 -47.84750 20744 ft 398 kts 283°
2026-05-09 06:48 -1.74219 -47.87421 20120 ft 394 kts 282°
2026-05-09 06:48 -1.73625 -47.90091 19492 ft 391 kts 282°
2026-05-09 06:48 -1.73047 -47.92719 18868 ft 387 kts 282°
2026-05-09 06:48 -1.72476 -47.95326 18244 ft 384 kts 282°
2026-05-09 06:49 -1.71910 -47.97913 17619 ft 380 kts 282°
2026-05-09 06:49 -1.71351 -48.00475 16995 ft 377 kts 282°
2026-05-09 06:49 -1.70797 -48.03013 16371 ft 374 kts 282°
2026-05-09 06:49 -1.70248 -48.05531 15746 ft 371 kts 282°
2026-05-09 06:50 -1.69701 -48.08048 15117 ft 367 kts 282°
2026-05-09 06:50 -1.69164 -48.10521 14493 ft 364 kts 282°
2026-05-09 06:50 -1.68632 -48.12976 13868 ft 361 kts 282°
2026-05-09 06:50 -1.68106 -48.15407 13244 ft 358 kts 282°
2026-05-09 06:51 -1.67589 -48.17800 12613 ft 348 kts 282°
2026-05-09 06:51 -1.67091 -48.20109 12148 ft 333 kts 281°
2026-05-09 06:51 -1.66615 -48.22316 11738 ft 319 kts 281°
2026-05-09 06:51 -1.66157 -48.24442 11332 ft 305 kts 281°
2026-05-09 06:52 -1.65723 -48.26460 10931 ft 292 kts 281°
2026-05-09 06:52 -1.65306 -48.28398 10529 ft 281 kts 281°
2026-05-09 06:52 -1.64905 -48.30267 10136 ft 273 kts 281°
2026-05-09 06:52 -1.64510 -48.32112 9768 ft 272 kts 281°
2026-05-09 06:53 -1.64118 -48.33952 9395 ft 271 kts 281°
2026-05-09 06:53 -1.63731 -48.35776 9220 ft 269 kts 281°
2026-05-09 06:53 -1.63349 -48.37587 8888 ft 256 kts 281°
2026-05-09 06:53 -1.62995 -48.39266 8495 ft 240 kts 281°
2026-05-09 06:54 -1.62661 -48.40849 8067 ft 228 kts 281°
2026-05-09 06:54 -1.62344 -48.42362 7639 ft 218 kts 281°
2026-05-09 06:54 -1.62041 -48.43812 7224 ft 211 kts 281°
2026-05-09 06:54 -1.61747 -48.45242 6851 ft 211 kts 281°
2026-05-09 06:55 -1.61469 -48.46671 6481 ft 210 kts 281°
2026-05-09 06:55 -1.61192 -48.48106 6102 ft 209 kts 281°
2026-05-09 06:55 -1.60919 -48.49523 5727 ft 208 kts 281°
2026-05-09 06:55 -1.60648 -48.50931 5361 ft 206 kts 281°
2026-05-09 06:56 -1.60381 -48.52331 5130 ft 206 kts 281°
2026-05-09 06:56 -1.60114 -48.53730 4994 ft 206 kts 280°
2026-05-09 06:56 -1.59854 -48.55112 4867 ft 194 kts 280°
2026-05-09 06:56 -1.59621 -48.56370 4672 ft 180 kts 281°
2026-05-09 06:57 -1.59107 -48.57539 4005 ft 186 kts 309°
2026-05-09 06:57 -1.58127 -48.58286 3648 ft 175 kts 337°
2026-05-09 06:57 -1.56980 -48.58654 3357 ft 172 kts 344°
2026-05-09 06:57 -1.55828 -48.58990 3198 ft 173 kts 345°
2026-05-09 06:58 -1.54671 -48.59317 3064 ft 172 kts 345°
2026-05-09 06:58 -1.53514 -48.59636 2977 ft 172 kts 346°
2026-05-09 06:58 -1.52344 -48.59872 2893 ft 171 kts 360°
2026-05-09 06:58 -1.51221 -48.59712 2725 ft 152 kts 15°
2026-05-09 06:59 -1.50223 -48.59432 2679 ft 147 kts 19°
2026-05-09 06:59 -1.49307 -48.58953 2380 ft 152 kts 41°
2026-05-09 06:59 -1.48545 -48.58253 2070 ft 145 kts 44°
2026-05-09 06:59 -1.47802 -48.57579 1968 ft 144 kts 45°
2026-05-09 07:00 -1.47090 -48.56888 1883 ft 141 kts 46°
2026-05-09 07:00 -1.46402 -48.56204 1776 ft 140 kts 46°
2026-05-09 07:00 -1.45708 -48.55507 1824 ft 142 kts 47°
2026-05-09 07:00 -1.45014 -48.54803 1788 ft 143 kts 47°
2026-05-09 07:01 -1.44321 -48.54099 1596 ft 141 kts 47°
2026-05-09 07:01 -1.43636 -48.53402 1412 ft 140 kts 47°
2026-05-09 07:01 -1.42957 -48.52711 1231 ft 139 kts 47°
2026-05-09 07:01 -1.42279 -48.52019 1046 ft 140 kts 47°
2026-05-09 07:02 -1.41594 -48.51322 859 ft 141 kts 47°
2026-05-09 07:02 -1.40904 -48.50619 664 ft 140 kts 47°
2026-05-09 07:02 -1.40222 -48.49924 476 ft 140 kts 47°
2026-05-09 07:02 -1.39541 -48.49230 289 ft 140 kts 47°
2026-05-09 07:03 -1.38864 -48.48541 96 ft 136 kts 47°
2026-05-09 07:03 -1.38299 -48.47981 51 ft 83 kts 46°
2026-05-09 07:03 -1.38040 -48.47718 53 ft 26 kts 45°
2026-05-09 07:03 -1.37988 -48.47664 54 ft 6 kts 46°
2026-05-09 07:04 -1.37978 -48.47630 54 ft 4 kts 104°
2026-05-09 07:04 -1.37987 -48.47618 54 ft 2 kts 142°
2026-05-09 07:04 -1.38006 -48.47614 54 ft 4 kts 187°
2026-05-09 07:04 -1.38029 -48.47617 54 ft 5 kts 187°
2026-05-09 07:05 -1.38077 -48.47623 54 ft 9 kts 187°
2026-05-09 07:05 -1.38151 -48.47633 54 ft 12 kts 185°
2026-05-09 07:05 -1.38253 -48.47640 54 ft 17 kts 184°
2026-05-09 07:05 -1.38395 -48.47651 54 ft 22 kts 184°
2026-05-09 07:06 -1.38526 -48.47662 53 ft 16 kts 185°
2026-05-09 07:06 -1.38601 -48.47697 53 ft 12 kts 256°
2026-05-09 07:06 -1.38611 -48.47786 53 ft 15 kts 240°
2026-05-09 07:06 -1.38709 -48.47804 52 ft 17 kts 167°
2026-05-09 07:07 -1.38835 -48.47788 51 ft 20 kts 176°
2026-05-09 07:07 -1.38914 -48.47807 51 ft 7 kts 251°
2026-05-09 07:07 -1.38927 -48.47840 50 ft 6 kts 245°
2026-05-09 07:07 -1.38937 -48.47862 50 ft 2 kts 252°
2026-05-09 07:08 -1.38939 -48.47870 50 ft 0 kts 252°
2026-05-09 07:08 -1.38940 -48.47873 50 ft 0 kts 255°